Weather History for Garden City, KS

Change the Weather History Date:

Wednesday, November 21, 2012

  Actual Average Record
Temperature  
Mean Temperature 57 °F 39 °F  
Max Temperature 75 °F 53 °F 77 °F (1974)
Min Temperature 39 °F 25 °F 8 °F (1977)
Degree Days  
Heating Degree Days 8 26  
Month to date heating degree days 331 446  
Since 1 July heating degree days 762 836  
Cooling Degree Days 0 0  
Month to date cooling degree days 0 0  
Year to date cooling degree days 1643 1298  
Growing Degree Days 7 (Base 50)    
Moisture  
Dew Point 33 °F    
Average Humidity 44    
Maximum Humidity 70    
Minimum Humidity 17    
Precipitation  
Precipitation 0.00 in 0.01 in 0.19 in (1963)
Month to date precipitation 0.00 0.40  
Year to date precipitation 12.67 18.80  
Sea Level Pressure  
Sea Level Pressure 29.97 in    
Wind  
Wind Speed 16 mph (South)    
Max Wind Speed 35 mph    
Max Gust Speed 43 mph    
Visibility 10 miles    
Events      
T = Trace of Precipitation, MM = Missing Value Source: NWS Daily Summary

Daily Weather History Graph

Daily Weather History Graph

Search for Another Location

Airport:

Trip Planner

Search our weather history database for the weather conditions in past years. The results will help you decide how hot, cold, wet, or windy it might be!

Date:

Astronomy

Nov. 21, 2012 Rise Set
Actual Time 7:30 AM CST 5:27 PM CST
Civil Twilight 7:01 AM CST 5:55 PM CST
Nautical Twilight 6:29 AM CST 6:27 PM CST
Astronomical Twilight 5:58 AM CST 6:59 PM CST
Moon 1:39 PM CST (11/21) 12:57 AM CST (11/21)
Length of Visible Light 10h 53m
Length of Day
9h 56m
First Quarter, 62% of the Moon is Illuminated
Nov 21
First Quarter
Nov 28
Full
Dec 6
Last Quarter
Dec 13
New
Dec 19
First Quarter

Hourly Weather History & Observations

Time (CST) Temp. Windchill Dew Point Humidity Pressure Visibility Wind Dir Wind Speed Gust Speed Precip Events Conditions
12:54 AM 43.0 °F 38.8 °F 30.9 °F 62% 30.12 in 10.0 mi South 6.9 mph - N/A   Clear
1:54 AM 42.1 °F 37.1 °F 30.9 °F 65% 30.10 in 10.0 mi SSW 8.1 mph - N/A   Clear
2:54 AM 41.0 °F 35.8 °F 30.9 °F 67% 30.10 in 10.0 mi South 8.1 mph - N/A   Clear
3:54 AM 42.1 °F 37.1 °F 32.0 °F 67% 30.08 in 10.0 mi South 8.1 mph - N/A   Clear
4:54 AM 42.1 °F 37.1 °F 32.0 °F 67% 30.08 in 10.0 mi South 8.1 mph - N/A   Clear
5:54 AM 43.0 °F 36.4 °F 32.0 °F 65% 30.08 in 10.0 mi South 12.7 mph - N/A   Clear
6:54 AM 39.0 °F 32.3 °F 30.9 °F 73% 30.09 in 10.0 mi South 10.4 mph - N/A   Clear
7:54 AM 41.0 °F 33.1 °F 30.9 °F 67% 30.08 in 10.0 mi South 15.0 mph - N/A   Clear
8:54 AM 46.0 °F 39.6 °F 30.9 °F 56% 30.09 in 10.0 mi SSW 15.0 mph - N/A   Clear
9:54 AM 53.1 °F - 28.9 °F 40% 30.08 in 10.0 mi South 18.4 mph - N/A   Clear
10:54 AM 60.1 °F - 26.1 °F 27% 30.05 in 10.0 mi SSW 25.3 mph 33.4 mph N/A   Clear
11:54 AM 66.9 °F - 25.0 °F 21% 29.99 in 10.0 mi SSW 26.5 mph 35.7 mph N/A   Clear
12:54 PM 70.0 °F - 26.1 °F 19% 29.95 in 10.0 mi South 27.6 mph 36.8 mph N/A   Clear
1:54 PM 73.0 °F - 27.0 °F 18% 29.91 in 10.0 mi SSW 26.5 mph 38.0 mph N/A   Clear
2:54 PM 75.0 °F - 28.9 °F 18% 29.88 in 10.0 mi SSW 27.6 mph 35.7 mph N/A   Clear
3:54 PM 73.0 °F - 35.1 °F 25% 29.86 in 10.0 mi SSW 25.3 mph 31.1 mph N/A   Clear
4:54 PM 69.1 °F - 36.0 °F 30% 29.87 in 10.0 mi South 20.7 mph 28.8 mph N/A   Clear
5:54 PM 66.0 °F - 37.0 °F 34% 29.86 in 10.0 mi South 17.3 mph - N/A   Clear
6:54 PM 62.1 °F - 39.0 °F 43% 29.88 in 10.0 mi South 13.8 mph - N/A   Clear
7:54 PM 57.0 °F - 39.0 °F 51% 29.88 in 10.0 mi South 8.1 mph - N/A   Clear
8:54 PM 59.0 °F - 41.0 °F 51% 29.86 in 10.0 mi South 11.5 mph - N/A   Clear
9:54 PM 57.0 °F - 41.0 °F 55% 29.85 in 10.0 mi South 12.7 mph - N/A   Clear
10:54 PM 59.0 °F - 42.1 °F 53% 29.81 in 10.0 mi SSW 12.7 mph - N/A   Clear
11:54 PM 59.0 °F - 43.0 °F 55% 29.78 in 10.0 mi South 15.0 mph - N/A   Clear